Weather History for KO69 - December, 2013

Change the Weather History Date:

Monday, December 23, 2013

  Actual Average (KAPC) Record (KAPC)
Temperature  
Mean Temperature 48 °F 45 °F  
Max Temperature 64 °F 55 °F 66 °F (2004)
Min Temperature 32 °F 36 °F 20 °F (2011)
Degree Days  
Heating Degree Days 17    
Month to date heating degree days  
Since 1 July heating degree days  
Cooling Degree Days 0    
Month to date cooling degree days  
Year to date cooling degree days  
Moisture  
Dew Point 36 °F    
Average Humidity 79    
Maximum Humidity 100    
Minimum Humidity 39    
Precipitation  
Precipitation 0.00 in - 2.12 in (1964)
Month to date precipitation  
Year to date precipitation  
Since 1 July precipitation  
Sea Level Pressure  
Sea Level Pressure 30.37 in    
Wind  
Wind Speed 1 mph (SE)    
Max Wind Speed 8 mph    
Max Gust Speed -    
Visibility 7 miles    
Events      
T = Trace of Precipitation, MM = Missing Value Source: NWS Daily Summary

Daily Weather History Graph

Daily Weather History Graph

Search for Another Location

Airport or City:

Trip Planner

Search our weather history database for the weather conditions in past years. The results will help you decide how hot, cold, wet, or windy it might be!

Date:

Astronomy

Dec. 23, 2013 Rise Set
Actual Time 7:24 AM PST 4:54 PM PST
Civil Twilight 6:54 AM PST 5:24 PM PST
Nautical Twilight 6:21 AM PST 5:57 PM PST
Astronomical Twilight 5:49 AM PST 6:29 PM PST
Moon 11:04 PM PST (12/23) 10:57 AM PST (12/23)
Length of Visible Light 10h 29m
Length of Day
9h 30m
Waning Gibbous, 67% of the Moon is Illuminated
Dec 23
Waning Gibbous
Dec 25
Last Quarter
Jan 1
New
Jan 7
First Quarter
Jan 15
Full

Hourly Weather History & Observations

Time (PST) Temp. Windchill Dew Point Humidity Pressure Visibility Wind Dir Wind Speed Gust Speed Precip Events Conditions
12:15 AM 35.6 °F - 33.8 °F 93% 30.32 in 7.0 mi Calm Calm - N/A   Partly Cloudy
12:35 AM 37.4 °F - 35.6 °F 93% 30.32 in 8.0 mi Calm Calm - N/A   Partly Cloudy
12:55 AM 35.6 °F - 35.6 °F 100% 30.32 in 7.0 mi Calm Calm - N/A   Partly Cloudy
1:15 AM 35.6 °F - 35.6 °F 100% 30.32 in 7.0 mi Calm Calm - N/A   Clear
1:35 AM 35.6 °F - 35.6 °F 100% 30.33 in 7.0 mi Calm Calm - N/A   Scattered Clouds
1:55 AM 32.0 °F - 32.0 °F 100% 30.33 in 7.0 mi Calm Calm - N/A   Scattered Clouds
2:15 AM 33.8 °F - 33.8 °F 100% 30.34 in 7.0 mi Calm Calm - N/A   Scattered Clouds
2:35 AM 32.0 °F - 32.0 °F 100% 30.34 in 7.0 mi Calm Calm - N/A   Partly Cloudy
2:55 AM 32.0 °F - 32.0 °F 100% 30.35 in 7.0 mi Calm Calm - N/A   Partly Cloudy
3:15 AM 33.8 °F - 33.8 °F 100% 30.35 in 8.0 mi Calm Calm - N/A   Scattered Clouds
3:35 AM 32.0 °F - 32.0 °F 100% 30.35 in 8.0 mi Calm Calm - N/A   Partly Cloudy
3:55 AM 32.0 °F - 32.0 °F 100% 30.35 in 6.0 mi Calm Calm - N/A   Partly Cloudy
4:15 AM 33.8 °F - 33.8 °F 100% 30.35 in 6.0 mi Calm Calm - N/A   Partly Cloudy
4:35 AM 32.0 °F - 32.0 °F 100% 30.35 in 5.0 mi Calm Calm - N/A   Scattered Clouds
4:55 AM 32.0 °F - 32.0 °F 100% 30.35 in 5.0 mi Calm Calm - N/A   Mostly Cloudy
5:15 AM 33.8 °F - 33.8 °F 100% 30.36 in 5.0 mi Calm Calm - N/A   Overcast
5:35 AM 32.0 °F 28.7 °F 32.0 °F 100% 30.36 in 5.0 mi NNW 3.5 mph - N/A   Mostly Cloudy
5:55 AM 32.0 °F - 32.0 °F 100% 30.36 in 5.0 mi Calm Calm - N/A   Scattered Clouds
6:15 AM 32.0 °F - 32.0 °F 100% 30.37 in 4.0 mi Calm Calm - N/A   Scattered Clouds
6:35 AM 32.0 °F - 32.0 °F 100% 30.38 in 5.0 mi Calm Calm - N/A   Scattered Clouds
6:55 AM 32.0 °F - 32.0 °F 100% 30.38 in 3.0 mi Calm Calm - N/A   Partly Cloudy
7:15 AM 32.0 °F - 32.0 °F 100% 30.39 in 3.0 mi Calm Calm - N/A   Partly Cloudy
7:35 AM 32.0 °F - 32.0 °F 100% 30.39 in 2.0 mi Calm Calm - N/A   Clear
7:55 AM 32.0 °F - 32.0 °F 100% 30.40 in 3.0 mi Calm Calm - N/A   Clear
8:15 AM 33.8 °F - 33.8 °F 100% 30.40 in 3.0 mi Calm Calm - N/A   Clear
8:35 AM 35.6 °F - 35.6 °F 100% 30.41 in 4.0 mi Calm Calm - N/A   Clear
8:55 AM 39.2 °F - 39.2 °F 100% 30.41 in 6.0 mi Calm Calm - N/A   Clear
9:15 AM 41.0 °F - 39.2 °F 93% 30.41 in 9.0 mi Calm Calm - N/A   Clear
9:35 AM 44.6 °F - 41.0 °F 87% 30.42 in 10.0 mi Calm Calm - N/A   Clear
9:55 AM 48.2 °F - 39.2 °F 71% 30.42 in 8.0 mi Calm Calm - N/A   Clear
10:15 AM 48.2 °F - 39.2 °F 71% 30.43 in 9.0 mi Calm Calm - N/A   Clear
10:35 AM 51.8 °F - 39.2 °F 62% 30.43 in 9.0 mi SW 3.5 mph - N/A   Clear
10:55 AM 53.6 °F - 39.2 °F 58% 30.43 in 10.0 mi Calm Calm - N/A   Clear
11:15 AM 55.4 °F - 39.2 °F 54% 30.42 in 10.0 mi Calm Calm - N/A   Clear
11:35 AM 55.4 °F - 39.2 °F 54% 30.42 in 10.0 mi Calm Calm - N/A   Clear
11:55 AM 57.2 °F - 39.2 °F 51% 30.41 in 10.0 mi Calm Calm - N/A   Clear
12:15 PM 59.0 °F - 39.2 °F 48% 30.40 in 9.0 mi Calm Calm - N/A   Clear
12:35 PM 59.0 °F - 39.2 °F 48% 30.39 in 10.0 mi Calm Calm - N/A   Clear
12:55 PM 59.0 °F - 39.2 °F 48% 30.38 in 10.0 mi Calm Calm - N/A   Clear
1:15 PM 60.8 °F - 39.2 °F 45% 30.38 in 10.0 mi Calm Calm - N/A   Clear
1:35 PM 62.6 °F - 39.2 °F 42% 30.37 in 9.0 mi Calm Calm - N/A   Clear
1:55 PM 64.4 °F - 39.2 °F 40% 30.36 in 9.0 mi ESE 4.6 mph - N/A   Clear
2:15 PM 64.4 °F - 39.2 °F 40% 30.35 in 8.0 mi SSE 5.8 mph - N/A   Clear
2:35 PM 62.6 °F - 39.2 °F 42% 30.35 in 8.0 mi SSE 8.1 mph - N/A   Clear
2:55 PM 62.6 °F - 37.4 °F 39% 30.35 in 8.0 mi SSE 8.1 mph - N/A   Clear
3:15 PM 62.6 °F - 39.2 °F 42% 30.36 in 8.0 mi South 6.9 mph - N/A   Clear
3:35 PM 60.8 °F - 39.2 °F 45% 30.36 in 8.0 mi SSE 5.8 mph - N/A   Clear
3:55 PM 59.0 °F - 39.2 °F 48% 30.36 in 8.0 mi SSE 5.8 mph - N/A   Clear
4:15 PM 59.0 °F - 39.2 °F 48% 30.36 in 8.0 mi SSE 5.8 mph - N/A   Clear
4:35 PM 57.2 °F - 39.2 °F 51% 30.36 in 8.0 mi SSE 5.8 mph - N/A   Clear
4:55 PM 53.6 °F - 39.2 °F 58% 30.36 in 7.0 mi ESE 4.6 mph - N/A   Clear
5:15 PM 53.6 °F - 37.4 °F 54% 30.36 in 8.0 mi East 3.5 mph - N/A   Clear
5:35 PM 50.0 °F - 37.4 °F 62% 30.36 in 9.0 mi ENE 3.5 mph - N/A   Clear
5:55 PM 48.2 °F - 37.4 °F 66% 30.36 in 9.0 mi Calm Calm - N/A   Mostly Cloudy
6:15 PM 48.2 °F - 37.4 °F 66% 30.36 in 9.0 mi ENE 3.5 mph - N/A   Overcast
6:35 PM 46.4 °F - 37.4 °F 71% 30.37 in 8.0 mi Calm Calm - N/A   Overcast
6:55 PM 46.4 °F - 37.4 °F 71% 30.36 in 8.0 mi Calm Calm - N/A   Mostly Cloudy
7:15 PM 46.4 °F - 35.6 °F 66% 30.37 in 8.0 mi Calm Calm - N/A   Mostly Cloudy
7:35 PM 44.6 °F - 37.4 °F 76% 30.37 in 8.0 mi Calm Calm - N/A   Mostly Cloudy
7:55 PM 44.6 °F - 37.4 °F 76% 30.37 in 8.0 mi Calm Calm - N/A   Mostly Cloudy
8:15 PM 42.8 °F - 37.4 °F 81% 30.37 in 7.0 mi Calm Calm - N/A   Mostly Cloudy
8:35 PM 41.0 °F - 37.4 °F 87% 30.37 in 7.0 mi Calm Calm - N/A   Mostly Cloudy
8:55 PM 41.0 °F - 35.6 °F 81% 30.37 in 7.0 mi Calm Calm - N/A   Mostly Cloudy
9:15 PM 41.0 °F - 37.4 °F 87% 30.37 in 8.0 mi Calm Calm - N/A   Mostly Cloudy
9:35 PM 41.0 °F - 37.4 °F 87% 30.38 in 7.0 mi Calm Calm - N/A   Mostly Cloudy
9:55 PM 39.2 °F - 37.4 °F 93% 30.37 in 6.0 mi Calm Calm - N/A   Overcast
10:15 PM 39.2 °F - 37.4 °F 93% 30.38 in 6.0 mi Calm Calm - N/A   Mostly Cloudy
10:35 PM 39.2 °F - 37.4 °F 93% 30.38 in 5.0 mi Calm Calm - N/A   Mostly Cloudy
10:55 PM 39.2 °F - 37.4 °F 93% 30.38 in 5.0 mi Calm Calm - N/A   Overcast
11:15 PM 39.2 °F - 37.4 °F 93% 30.38 in 5.0 mi Calm Calm - N/A   Overcast
11:35 PM 37.4 °F - 37.4 °F 100% 30.38 in 5.0 mi Calm Calm - N/A   Mostly Cloudy
11:55 PM 37.4 °F - 37.4 °F 100% 30.37 in 5.0 mi Calm Calm - N/A   Overcast